Location: Quedlinburg
(51.7921°N, 11.1414°E)
Time: 08:47:20
(UTC+02:00)

SO-50 - Pass Details

Date: 13 March 2026
Orbit: 567 x 673 km, 64.6° (Epoch: 13 April)

Event Time Altitude Azimuth Distance (km) Brightness Sun altitude
Rises 22:04:06 0° 282° (WNW) 2,989 ? -32.8°
Reaches altitude 10° 22:06:59 10° 300° (WNW) 2,093 ? -33.1°
Maximum altitude 22:10:28 20° 347° (NNW) 1,556 ? -33.4°
Enters shadow 22:11:52 18° 10° (N) 1,660 ? -33.6°
